FW2082 Weather Reports


time (UTC)temp
C
wind
direction
speed
KPH
gust
KPH
rain 1hr
cm
rain 24hr
cm
rain mn
cm
humidity
%
barometer
mb
20260906080047 17 69 0.0 3.2 0.00 0.33 0.00 90 1011.1
20260906074547 17 81 0.0 8.0 0.00 0.33 0.00 90 1010.9
20260906073045 17 82 1.6 4.8 0.00 0.33 0.00 90 1010.9
20260906071545 17 82 1.6 4.8 0.00 0.33 0.00 89 1011.0
20260906070042 18 82 0.0 3.2 0.00 0.33 0.00 89 1011.1
20260906064540 18 82 1.6 4.8 0.00 0.33 0.00 88 1010.9
20260906063039 18 93 1.6 6.4 0.00 0.33 0.00 88 1010.8
20260906061537 18 100 0.0 4.8 0.00 0.33 0.00 89 1010.8
20260906060036 18 88 1.6 4.8 0.00 0.33 0.00 91 1010.7
20260906054533 19 79 0.0 3.2 0.00 0.33 0.00 91 1010.8
20260906053034 19 79 1.6 3.2 0.00 0.33 0.00 90 1010.5
20260906051532 20 79 1.6 4.8 0.00 0.33 0.00 89 1010.5
20260906050027 20 79 1.6 6.4 0.00 0.33 0.00 90 1010.3
20260906044523 20 79 1.6 6.4 0.00 0.33 0.00 91 1010.2
20260906043020 21 86 0.0 4.8 0.00 0.33 0.00 91 1010.0
20260906041523 21 91 3.2 9.7 0.00 0.33 0.00 91 1010.0
20260906040016 22 67 0.0 4.8 0.00 0.33 0.00 93 1010.0
20260906034513 22 72 1.6 4.8 0.00 0.33 0.33 94 1010.0
20260906033013 22 76 1.6 8.0 0.00 0.33 0.33 93 1009.8
20260906031512 22 66 3.2 9.7 0.00 0.33 0.33 93 1009.6
20260906030012 22 99 3.2 9.7 0.00 0.33 0.33 93 1009.8
20260906024511 22 90 3.2 9.7 0.00 0.33 0.33 93 1009.7
20260906023018 22 99 3.2 12.9 0.00 0.33 0.33 93 1009.6
20260906021514 23 87 3.2 9.7 0.00 0.33 0.33 93 1009.5
20260906020010 23 74 3.2 8.0 0.00 0.33 0.33 93 1009.6
20260906014515 23 92 1.6 8.0 0.00 0.33 0.33 93 1009.4
20260906013009 23 105 1.6 8.0 0.00 0.33 0.33 93 1009.0
20260906011508 23 92 1.6 6.4 0.00 0.33 0.33 92 1008.9
20260906010008 23 75 3.2 11.3 0.00 0.33 0.33 91 1008.6
20260906004510 24 53 1.6 4.8 0.00 0.33 0.33 92 1008.6
20260906003009 24 59 1.6 9.7 0.00 0.33 0.33 92 1008.3
20260906001508 25 55 1.6 8.0 0.00 0.33 0.33 92 1008.1
20260906000006 25 79 0.0 6.4 0.00 0.33 0.33 91 1008.1
20260905234505 25 235 0.0 3.2 0.00 0.33 0.33 91 1007.9
20260905233012 25 235 0.0 1.6 0.00 0.33 0.33 90 1007.7
20260905231504 24 235 0.0 1.6 0.00 0.33 0.33 90 1007.8
20260905230003 23 235 0.0 4.8 0.00 0.33 0.33 90 1008.0
20260905224502 24 236 8.0 17.7 0.00 0.33 0.33 89 1008.5
20260905223003 25 239 0.0 0.0 0.00 0.33 0.33 89 1007.8
20260905221603 24 239 0.0 1.6 0.00 0.33 0.33 88 1007.7
20260905220101 25 239 0.0 3.2 0.00 0.33 0.33 87 1007.6
20260905214559 25 254 3.2 8.0 0.00 0.33 0.33 83 1007.6
20260905213058 26 328 0.0 6.4 0.00 0.33 0.33 84 1007.6
20260905211603 28 201 3.2 9.7 0.00 0.33 0.33 82 1007.1
20260905210057 30 32 0.0 6.4 0.00 0.33 0.33 76 1007.0
20260905204553 30 303 3.2 12.9 0.00 0.33 0.33 73 1007.3
20260905203057 31 306 3.2 9.7 0.00 0.33 0.33 72 1007.4
20260905201553 31 281 4.8 9.7 0.00 0.33 0.33 72 1007.7
20260905200052 31 307 3.2 14.5 0.00 0.33 0.33 71 1007.8
20260905194546 31 243 3.2 11.3 0.00 0.33 0.33 70 1007.8
20260905193102 31 286 3.2 9.7 0.00 0.33 0.33 72 1008.0
20260905191544 31 311 3.2 9.7 0.00 0.33 0.33 71 1008.2
20260905190040 30 259 3.2 11.3 0.00 0.33 0.33 71 1008.4
20260905184540 30 271 3.2 9.7 0.00 0.33 0.33 71 1008.5
20260905183045 30 325 6.4 11.3 0.00 0.33 0.33 71 1008.7
20260905181537 30 267 6.4 12.9 0.00 0.33 0.33 70 1008.8
20260905180036 30 256 4.8 14.5 0.00 0.33 0.33 71 1008.9
20260905174533 29 219 9.7 19.3 0.00 0.33 0.33 73 1008.9
20260905173032 29 258 6.4 17.7 0.00 0.33 0.33 74 1008.9
20260905171535 28 264 9.7 16.1 0.00 0.33 0.33 75 1009.1
20260905170026 28 238 6.4 12.9 0.00 0.33 0.33 78 1009.2
20260905164526 26 283 6.4 14.5 0.30 0.33 0.33 82 1009.3
20260905163023 24 304 3.2 8.0 0.33 0.33 0.33 92 1009.5
20260905161522 22 30 0.0 1.6 0.33 0.33 0.33 94 1010.0
20260905160027 22 99 0.0 4.8 0.30 0.30 0.30 90 1010.0
20260905154520 25 351 1.6 6.4 0.03 0.03 0.03 83 1010.9
20260905153019 27 231 1.6 9.7 0.00 0.00 0.00 75 1009.8
20260905151515 26 273 6.4 16.1 0.00 0.00 0.00 77 1009.6
20260905150013 26 221 4.8 9.7 0.00 0.00 0.00 79 1009.5
20260905144516 25 233 3.2 14.5 0.00 0.00 0.00 80 1009.4
20260905143010 25 228 4.8 14.5 0.00 0.00 0.00 80 1009.2
20260905141506 24 220 6.4 16.1 0.00 0.00 0.00 82 1009.2
20260905140001 23 229 6.4 12.9 0.00 0.00 0.00 82 1009.6
20260905134601 23 248 0.0 14.5 0.00 0.00 0.00 86 1009.5
20260905133059 22 242 0.0 9.7 0.00 0.00 0.00 88 1009.6
20260905131512 21 242 1.6 11.3 0.00 0.00 0.00 88 1010.1